Vertical_Velocity
-1 4 -7 -1 -3 2 4 2 0 -2 -2 -4 1 2 2 -3 -3 6 6 -1 -0 -1 -3 0 -3 -4 1 0 -0 -2 4 1 3 1 0 -1 0 -3 -1 -2 -2 -4 -3 -1 -0 -0 -8 0 -4 -3 -7 -0 0 0
-0 -3 -1 1 -4 2 2 2 -2 -4 -2 -6 -4 5 5 -4 -2 14 6 2 3 -3 0 3 -0 -0 1 -2 -4 1 0 -0 -4 -1 2 0 0 1 -2 -2 0 -1 -9 -8 -9 -12 -1 0 1 1 1 -1 1 -2
-2 2 1 -5 0 -1 0 2 -1 0 -3 -4 -2 4 -2 1 5 8 8 0 1 -1 -8 3 -6 3 3 1 -0 2 1 -2 0 1 -2 -1 -1 -1 -1 -3 -0 -1 -0 -0 -4 -4 0 -0 1 1 1 -2 -0 2
-0 -2 -1 -1 1 0 -1 -3 -2 0 -3 -5 1 -2 -0 3 3 -5 20 -2 1 -1 1 -1 1 0 0 -0 1 -1 6 -1 2 0 -0 -1 -1 -1 -1 -1 -2 -6 -2 -2 -3 -1 -0 -0 0 0 -0 0 -2 2
-0 -0 0 -0 -4 -1 -0 -1 -3 -2 -2 -1 -2 2 -2 -0 6 -1 9 -1 -1 4 3 0 -0 0 -0 0 0 4 4 2 2 2 1 -1 0 -0 -0 -2 -0 -2 -5 -4 -7 -4 -4 -1 -0 1 -3 -3 0 -4
-0 -1 -3 1 2 2 2 -2 -1 -0 -4 -3 -2 -0 -2 -4 -3 6 6 -3 -3 3 -2 1 1 1 -1 1 1 2 3 -1 1 1 -0 1 1 -1 -1 -0 -5 -0 1 2 -2 1 -0 1 1 1 -3 -2 1 -2
2 1 -0 1 2 2 1 -2 -0 -1 0 -1 0 -2 -6 -2 9 -1 6 2 2 2 2 -1 -1 1 1 -1 -1 -2 -2 2 1 0 -0 0 -0 -0 0 -0 -2 1 2 1 2 -4 -1 5 -3 2 -0 -1 2 0
1 -2 -3 -2 -0 -1 -0 -2 1 2 -2 -3 -0 -3 -5 -2 4 -5 8 1 2 -2 1 -1 -2 -0 0 1 1 1 0 1 1 0 -0 -0 0 -0 -0 -4 0 1 1 2 2 -0 -1 -3 1 2 5 -0 -1 -0
-1 -2 -1 -2 0 -2 -0 -3 -3 -0 -7 -2 -4 2 -6 5 2 -9 12 -1 2 5 -2 -1 -2 -3 0 1 1 1 1 0 -0 -0 -0 -1 -1 -2 -7 -1 -1 -3 -3 -4 0 3 3 1 -0 1 -0 4 -4 -0
-2 -2 -2 1 -0 -1 -1 -1 -2 -6 0 1 7 -0 -0 3 0 -3 3 4 9 -1 0 -1 1 -0 -1 0 0 -1 -0 0 -1 0 -1 0 -4 -4 -0 1 1 0 0 -2 -8 3 4 5 1 3 2 2 3 -1
-3 -1 -2 2 2 0 -2 -3 -2 -6 -6 -5 -4 2 1 49 8 1 1 -0 1 1 2 -1 -3 -2 -1 -2 -1 1 -0 0 -1 -2 1 -1 -3 -3 0 0 -1 2 2 3 5 7 10 9 -3 -5 0 2 0 -0
-2 -0 -1 -1 3 0 0 0 -1 -3 10 -3 2 -5 2 9 0 -0 -1 1 1 -4 2 -1 -1 -1 -0 -0 -2 -0 -1 -1 -1 -0 1 -1 -7 -0 -0 -1 0 2 2 1 1 -1 -0 0 -2 -2 -2 -2 -1 -0
-1 -2 0 -3 1 1 0 1 2 -1 1 4 0 0 4 -0 5 2 0 2 2 -0 -1 2 0 -4 -0 -1 -1 -1 -1 -2 -2 -1 -4 -6 -1 -1 0 -0 0 3 3 1 -0 4 2 -1 2 -1 -7 1 -0 -0
-0 -4 2 -2 -1 1 3 0 2 0 -3 2 1 0 -1 2 -1 -1 -1 -2 -1 -1 -0 -1 0 -2 0 -1 -0 -4 -1 -3 -1 1 -7 -3 -3 -1 -0 0 -0 -1 2 0 1 3 2 -0 0 1 2 2 -1 -1
-2 -2 0 2 -1 2 1 1 -0 1 -2 1 2 -1 1 -0 -1 -1 -2 1 -0 1 -4 -0 -2 -4 0 -2 -1 -1 -2 -1 -3 -6 -3 -2 -1 -0 -0 1 1 -0 0 1 3 1 -0 2 -0 -1 1 0 1 -2
-3 -6 -5 -2 2 1 -1 -0 1 -2 -1 1 2 0 -1 0 -1 0 0 -1 -0 2 3 0 -1 -1 0 -3 -2 -3 -3 -5 -7 -2 -1 -1 -1 1 -1 2 3 2 2 -0 1 1 -1 2 -2 -3 -1 2 1 2
-1 4 0 -6 -4 0 1 -2 1 2 0 2 -0 -0 2 1 -1 -2 1 -0 5 5 -1 -1 -2 -7 -3 -2 -0 -1 -5 -5 -2 -0 -1 1 -2 -1 1 2 1 -0 -1 1 -1 -0 -0 1 0 -1 -4 -0 1 0
-2 -2 -1 -1 -7 -4 -2 1 -1 1 -0 -0 -0 -1 0 1 -0 -1 -0 1 -2 1 -0 -4 -5 -0 -2 -2 -2 -4 -0 -1 1 0 1 1 2 3 3 -2 1 1 -1 0 3 0 -1 -2 -2 -1 0 -1 -1 0
-0 -4 -4 -1 -4 -2 -1 -2 1 -0 -1 0 0 -0 0 0 0 -1 3 4 0 1 -0 1 -2 -1 -2 -1 -1 -1 -1 -0 -3 0 -0 2 2 -2 -1 3 2 0 1 1 -1 -2 1 5 2 -1 -1 -1 -1 -1
3 4 1 1 -4 -2 -1 0 1 1 -1 -1 -1 -1 0 -0 -1 -1 1 2 1 1 1 -1 -2 -3 -2 -1 -2 -1 1 1 -3 -1 2 2 3 1 2 -2 -3 -0 -0 3 4 3 -0 0 3 1 1 0 -2 -3
-5 -2 -5 1 -1 -1 -1 -2 -1 1 -0 -1 -1 1 -1 1 -0 1 1 3 4 0 -0 0 0 -0 0 -1 -2 -0 1 2 -2 -4 -10 -2 5 3 1 8 5 2 -3 -2 -2 -0 3 1 -2 -1 -1 0 1 1
-4 -1 -4 0 -2 -0 -0 -0 -1 -2 1 -0 -2 1 0 -0 0 2 6 -1 1 2 1 2 1 -0 1 1 -1 0 -0 2 1 -0 1 1 -2 3 4 -1 -4 -3 1 1 2 -1 0 1 1 0 0 -2 0 -1
-2 -1 -0 -1 -1 0 -2 1 -0 0 -2 -3 -2 -0 -1 -1 0 0 -1 2 3 3 4 3 1 1 1 1 2 2 1 -1 -2 3 1 -2 -0 2 3 1 5 -1 -5 -0 4 1 -1 -0 0 -1 -2 -1 -2 -3
0 1 -0 -1 -1 -4 -1 -2 -0 0 -0 -2 -0 -1 -1 -0 -2 -2 0 1 1 0 2 2 5 2 3 5 3 0 0 4 1 5 4 -1 -2 1 4 3 4 2 6 -3 -1 -0 1 0 0 -0 -0 -1 -1 1
0 -4 -0 -3 0 -3 -2 -3 -2 -3 -0 -1 -0 -1 -1 -0 -0 -1 1 -1 -3 -3 -1 2 3 6 0 1 1 2 2 3 -2 -5 2 3 -2 -0 1 0 2 2 2 -1 -3 -1 -2 0 -1 -0 -1 0 -1 -1
-4 -1 -4 -2 -2 -4 -2 -1 -0 -2 0 -0 -1 -1 0 -0 -1 0 1 -0 1 -2 -1 1 -2 -0 5 3 -0 1 2 3 2 2 3 3 0 -13 -10 -8 -6 -3 -1 5 -1 -5 -4 -2 -1 -1 -1 -1 -1 -1
-2 -4 -0 1 0 -0 -2 0 1 -1 -0 -0 -1 -1 -0 -0 -0 1 -1 -2 -2 -2 1 2 -2 -0 2 2 2 1 3 4 4 -4 -1 7 4 6 10 -3 -8 -1 -3 -1 1 1 -2 -3 -1 -0 -1 -3 -2 -1
-1 -0 -3 -0 0 0 -2 -0 -0 -1 -1 -0 1 -1 1 1 -1 -1 -1 0 2 -1 1 3 -1 1 4 3 2 2 4 7 9 4 -2 1 3 1 5 7 3 -1 -0 1 1 0 1 0 -1 -2 -1 -1 -2 -2
-0 0 -0 -0 0 -0 -1 -2 -2 -0 -0 -0 -1 -0 -1 -1 -1 -1 0 1 4 4 3 4 1 1 5 5 3 1 13 9 -13 -7 1 -2 2 4 1 -1 -3 -1 -1 -4 -1 3 3 1 -0 -0 -1 -1 -0 -0
-1 1 -2 0 -1 -2 -1 -0 -1 -1 0 0 -0 -1 -1 -0 -1 -1 -0 -0 -0 -0 0 3 3 2 1 3 0 2 6 7 7 4 -12 -9 -7 -5 -4 -1 -1 -2 -3 -3 -0 -2 -1 -1 -2 -2 -1 -1 -1 -1
1 0 -1 0 -1 1 0 0 0 1 1 0 0 -0 -1 -0 -0 -0 -0 -0 -1 0 2 2 3 5 4 2 3 3 -1 3 5 7 6 -1 -2 -3 -1 0 1 -2 -3 3 3 1 -2 -3 -2 -1 -1 -2 -1 -1
0 -1 -3 -1 -2 0 0 -0 0 1 0 -0 -1 0 0 0 1 -0 0 0 0 0 3 4 3 1 3 2 2 0 3 -0 -0 -6 -3 0 -1 -1 2 1 2 -1 -0 2 -1 -3 -1 -0 -1 -1 1 0 -0 0
-0 -0 0 -0 0 -0 1 0 -0 -0 -0 -0 -0 -0 -0 -0 -0 0 0 -0 0 -1 -0 2 2 1 1 2 3 1 0 -1 -1 1 2 4 2 -1 -0 -0 0 4 3 -1 0 -1 -4 -2 0 2 2 0 0 0
Height
1427 1422 1418 1413 1407 1402 1398 1394 1391 1388 1385 1380 1377 1373 1370 1366 1364 1364 1362 1367 1369 1370 1372 1373 1374 1376 1376 1377 1380 1379 1379 1377 1377 1378 1379 1376 1378 1380 1381 1374 1379 1379 1383 1385 1390 1392 1392 1361 1359 1361 1365 1362 1362 1360
1423 1418 1413 1409 1403 1398 1394 1390 1387 1385 1382 1378 1375 1372 1367 1364 1362 1361 1363 1365 1367 1371 1372 1371 1371 1372 1372 1373 1375 1375 1372 1370 1371 1374 1378 1377 1375 1382 1381 1382 1378 1381 1374 1379 1377 1377 1366 1363 1363 1363 1363 1362 1364 1363
1418 1414 1409 1404 1400 1395 1390 1387 1384 1381 1378 1375 1371 1367 1365 1362 1360 1361 1360 1364 1366 1368 1370 1370 1368 1368 1368 1368 1370 1372 1369 1369 1368 1369 1371 1372 1371 1372 1374 1375 1373 1371 1369 1371 1370 1363 1365 1365 1364 1364 1365 1365 1367 1368
1414 1409 1404 1400 1396 1391 1387 1384 1379 1376 1374 1371 1367 1365 1363 1359 1358 1359 1359 1363 1365 1367 1368 1365 1364 1365 1365 1366 1366 1367 1366 1366 1365 1367 1367 1369 1370 1371 1370 1370 1370 1368 1368 1368 1368 1365 1366 1365 1366 1366 1367 1369 1371 1374
1408 1403 1399 1395 1391 1387 1384 1381 1377 1374 1370 1367 1365 1362 1358 1355 1355 1356 1359 1361 1363 1367 1364 1363 1363 1364 1364 1365 1365 1365 1365 1364 1363 1365 1365 1366 1367 1370 1369 1370 1368 1361 1361 1365 1364 1356 1358 1360 1363 1367 1368 1371 1375 1376
1403 1399 1394 1390 1386 1383 1380 1377 1374 1370 1367 1363 1360 1357 1354 1352 1354 1354 1358 1359 1361 1363 1366 1363 1364 1363 1363 1364 1364 1365 1365 1364 1364 1361 1363 1363 1364 1367 1370 1368 1352 1351 1352 1352 1354 1354 1357 1359 1364 1368 1371 1375 1379 1382
1400 1395 1390 1386 1382 1379 1375 1372 1369 1365 1361 1358 1355 1351 1350 1350 1351 1354 1356 1355 1357 1364 1364 1365 1363 1363 1364 1364 1365 1365 1364 1363 1363 1363 1363 1361 1363 1364 1365 1364 1350 1349 1351 1352 1353 1354 1361 1363 1366 1371 1373 1378 1383 1387
1396 1392 1387 1383 1379 1376 1372 1368 1363 1360 1357 1353 1348 1345 1345 1346 1350 1351 1352 1354 1356 1362 1363 1364 1364 1364 1364 1364 1365 1365 1365 1365 1364 1364 1364 1363 1364 1364 1362 1350 1349 1350 1350 1352 1354 1354 1356 1361 1367 1372 1377 1381 1385 1390
1394 1389 1385 1381 1377 1373 1369 1365 1360 1355 1350 1344 1339 1339 1342 1345 1347 1349 1350 1354 1357 1362 1359 1361 1363 1364 1363 1363 1364 1365 1365 1365 1366 1364 1365 1366 1363 1361 1347 1345 1347 1347 1349 1352 1355 1357 1360 1362 1368 1374 1378 1383 1386 1391
1392 1387 1383 1379 1375 1370 1366 1363 1358 1352 1345 1339 1339 1340 1339 1341 1345 1350 1354 1356 1355 1357 1357 1357 1358 1361 1363 1363 1365 1366 1366 1367 1369 1367 1366 1366 1359 1344 1343 1344 1345 1347 1349 1351 1354 1361 1363 1366 1370 1375 1380 1385 1389 1393
1390 1385 1381 1376 1372 1368 1364 1359 1355 1350 1344 1340 1339 1338 1337 1341 1345 1348 1350 1352 1352 1354 1352 1352 1355 1359 1362 1363 1364 1366 1369 1370 1368 1370 1368 1366 1354 1341 1339 1340 1343 1346 1349 1352 1353 1356 1360 1362 1367 1375 1382 1388 1392 1396
1387 1383 1379 1374 1370 1366 1362 1357 1354 1351 1348 1347 1345 1340 1337 1336 1340 1345 1344 1347 1347 1346 1347 1348 1351 1354 1359 1361 1362 1367 1368 1370 1367 1370 1369 1360 1340 1337 1338 1339 1341 1344 1348 1352 1355 1357 1362 1367 1374 1379 1385 1390 1394 1398
1385 1381 1377 1372 1367 1362 1358 1354 1351 1347 1344 1340 1340 1339 1335 1334 1336 1333 1332 1337 1338 1340 1341 1343 1350 1352 1357 1360 1364 1366 1366 1368 1371 1373 1363 1344 1336 1336 1337 1338 1340 1345 1349 1353 1355 1359 1364 1370 1378 1383 1387 1392 1396 1400
1382 1378 1374 1369 1364 1359 1354 1349 1346 1343 1341 1339 1338 1334 1333 1328 1325 1321 1321 1326 1325 1327 1332 1338 1344 1348 1354 1359 1364 1372 1371 1371 1378 1374 1352 1338 1334 1336 1337 1339 1341 1345 1350 1353 1357 1361 1365 1372 1378 1385 1390 1394 1398 1402
1378 1375 1371 1366 1361 1356 1350 1344 1340 1339 1339 1337 1335 1329 1324 1323 1324 1324 1325 1325 1324 1326 1330 1338 1344 1346 1353 1358 1364 1369 1374 1374 1362 1347 1338 1331 1333 1336 1338 1341 1343 1346 1350 1355 1359 1363 1368 1375 1381 1386 1393 1397 1401 1404
1375 1371 1367 1363 1357 1352 1345 1340 1338 1338 1337 1335 1332 1329 1326 1325 1324 1324 1324 1325 1325 1328 1332 1335 1343 1347 1350 1355 1367 1365 1365 1360 1338 1335 1331 1332 1334 1336 1339 1343 1346 1349 1352 1356 1362 1367 1372 1379 1383 1389 1395 1400 1404 1406
1372 1369 1364 1359 1354 1348 1342 1339 1338 1337 1335 1332 1331 1330 1329 1327 1325 1324 1324 1323 1323 1327 1328 1334 1339 1343 1353 1364 1360 1355 1348 1334 1328 1329 1331 1334 1335 1337 1341 1344 1348 1352 1355 1360 1365 1371 1377 1383 1388 1392 1396 1401 1405 1408
1369 1366 1361 1356 1351 1345 1340 1339 1338 1337 1334 1332 1331 1330 1327 1326 1324 1324 1323 1322 1324 1324 1324 1329 1331 1342 1346 1348 1347 1330 1327 1327 1328 1330 1333 1336 1339 1342 1344 1347 1351 1355 1360 1365 1370 1376 1381 1386 1390 1394 1398 1401 1405 1409
1367 1363 1359 1355 1349 1346 1343 1341 1340 1338 1334 1332 1330 1329 1327 1324 1323 1321 1320 1321 1322 1323 1323 1324 1331 1336 1331 1326 1325 1324 1324 1325 1327 1331 1334 1338 1342 1344 1348 1351 1355 1360 1365 1371 1376 1380 1385 1390 1392 1396 1399 1403 1406 1410
1364 1360 1357 1352 1348 1346 1344 1343 1341 1338 1335 1333 1330 1328 1326 1323 1320 1319 1319 1320 1322 1323 1322 1323 1322 1320 1321 1322 1323 1323 1323 1324 1326 1330 1336 1340 1344 1347 1350 1354 1358 1364 1369 1375 1380 1383 1387 1392 1396 1399 1402 1405 1408 1410
1360 1356 1353 1350 1347 1347 1346 1343 1341 1339 1336 1333 1330 1327 1323 1321 1319 1318 1318 1319 1320 1318 1320 1318 1317 1318 1319 1320 1321 1321 1322 1325 1326 1328 1332 1338 1344 1348 1352 1357 1362 1367 1371 1376 1380 1385 1390 1392 1396 1400 1403 1407 1410 1412
1357 1354 1350 1347 1347 1346 1345 1344 1343 1339 1337 1332 1330 1327 1323 1320 1317 1317 1316 1316 1318 1321 1321 1319 1318 1318 1319 1319 1320 1321 1324 1326 1329 1332 1337 1341 1344 1349 1354 1359 1363 1368 1374 1377 1382 1385 1390 1394 1398 1402 1405 1407 1411 1413
1355 1352 1350 1349 1348 1346 1346 1343 1341 1338 1338 1332 1329 1327 1323 1322 1321 1318 1319 1322 1323 1323 1322 1320 1320 1320 1320 1320 1321 1322 1325 1327 1330 1334 1337 1342 1348 1353 1357 1361 1366 1370 1375 1381 1385 1388 1392 1396 1400 1403 1406 1408 1411 1413
1352 1351 1349 1348 1348 1348 1345 1342 1341 1340 1336 1335 1333 1329 1327 1324 1321 1321 1324 1327 1327 1324 1322 1320 1322 1321 1321 1321 1321 1323 1325 1328 1331 1334 1339 1342 1347 1354 1360 1364 1369 1373 1377 1380 1385 1389 1393 1397 1400 1403 1406 1409 1412 1414
1353 1351 1350 1350 1348 1348 1351 1348 1347 1345 1346 1340 1337 1330 1327 1326 1323 1327 1329 1330 1326 1326 1325 1322 1321 1321 1321 1321 1322 1325 1327 1329 1330 1332 1337 1343 1348 1355 1363 1368 1372 1376 1379 1381 1385 1389 1393 1397 1401 1404 1407 1410 1413 1415
1354 1348 1349 1348 1349 1350 1351 1353 1352 1350 1346 1344 1337 1333 1329 1327 1328 1330 1333 1333 1330 1329 1327 1324 1323 1323 1322 1323 1323 1325 1327 1329 1331 1335 1340 1346 1353 1357 1362 1365 1370 1375 1380 1384 1386 1389 1393 1398 1401 1405 1407 1410 1413 1415
1351 1347 1344 1345 1345 1346 1347 1347 1346 1347 1350 1347 1342 1338 1335 1333 1331 1336 1335 1334 1332 1330 1328 1326 1324 1324 1324 1324 1325 1327 1329 1331 1334 1338 1342 1348 1355 1360 1363 1365 1369 1374 1378 1383 1387 1391 1393 1397 1401 1405 1407 1410 1413 1414
1342 1342 1345 1344 1344 1345 1347 1349 1350 1350 1348 1344 1343 1344 1342 1341 1340 1339 1336 1333 1331 1328 1327 1325 1325 1325 1325 1325 1326 1329 1332 1335 1337 1340 1347 1353 1358 1363 1367 1370 1373 1377 1380 1385 1389 1392 1395 1399 1402 1405 1407 1410 1411 1413
1339 1339 1341 1344 1344 1344 1344 1345 1345 1345 1345 1344 1345 1343 1343 1341 1340 1338 1336 1334 1332 1330 1328 1327 1326 1328 1328 1328 1329 1333 1335 1337 1340 1345 1349 1353 1358 1363 1367 1371 1374 1378 1382 1386 1391 1395 1397 1400 1403 1406 1407 1409 1410 1411
1337 1338 1339 1342 1343 1344 1341 1342 1343 1343 1343 1343 1343 1342 1342 1340 1339 1338 1336 1334 1332 1331 1330 1330 1329 1330 1331 1332 1334 1338 1340 1342 1344 1347 1348 1353 1359 1364 1369 1373 1376 1380 1384 1388 1390 1392 1396 1399 1402 1405 1407 1409 1410 1411
1334 1336 1338 1339 1340 1340 1340 1341 1342 1343 1343 1342 1342 1342 1341 1340 1339 1339 1337 1336 1335 1335 1335 1335 1335 1336 1336 1337 1339 1341 1343 1346 1349 1352 1355 1358 1362 1367 1372 1375 1378 1381 1385 1388 1392 1395 1397 1400 1403 1405 1406 1408 1409 1409
1333 1334 1336 1340 1340 1340 1341 1342 1342 1342 1341 1342 1341 1341 1341 1341 1340 1340 1339 1338 1338 1338 1338 1339 1339 1340 1341 1343 1345 1346 1347 1350 1353 1355 1359 1363 1367 1371 1375 1379 1382 1384 1387 1390 1393 1397 1399 1401 1403 1405 1405 1406 1407 1407
1333 1334 1336 1337 1339 1340 1340 1341 1342 1342 1341 1341 1341 1340 1340 1340 1340 1340 1340 1340 1341 1341 1342 1343 1343 1344 1345 1346 1348 1349 1352 1354 1357 1361 1366 1370 1374 1377 1380 1382 1385 1387 1389 1391 1394 1396 1399 1402 1403 1404 1404 1404 1404 1404